Home   Weather   Eisenstadt   Past weeks

Flag for Austria Past Weather in Eisenstadt, Burgenland, Austria — Yesterday and Last 2 Weeks

Now
26 °F

Clear.


Feels Like: 26 °F
Forecast: 23 / 37 °F
Wind: 2 mph from North

Location: Eisenstadt

Current Time: Dec 4, 2016 at 5:08:36 am

Latest Report: Dec 4, 2016 at 4:00 am


Visibility: 9 mi

Pressure: 30.41 "Hg

Humidity: 86%

Dew Point: 23 °F

Location of EisenstadtLocation

Past Weather in Eisenstadt — Graph

°F

Eisenstadt Temperature Yesterday

Maximum temperature yesterday: 39 °F (at 3:00 pm)
Minimum temperature yesterday: 28 °F (at 11:00 pm)
Average temperature yesterday: 34 °F

High & Low Weather Summary for the Past Weeks

 TemperatureHumidityPressure
High63 °F (Nov 22, 2:00 pm)97% (Nov 25, 7:00 am)30.55 "Hg (Nov 25, 7:00 am)
Low25 °F (Nov 30, 7:00 am)32% (Nov 30, 10:00 pm)29.78 "Hg (Dec 2, 8:00 am)
Average43 °F75%30.12 "Hg
* Reported Nov 19 4:00 am — Dec 4 3:00 am, Eisenstadt, Weather by CustomWeather, © 2016

Note: Actual official high and low records may vary slightly from our data, if they occured in-between our weather recording intervals... More about our weather records

Advertising

Eisenstadt Weather History for the Previous 24 Hours

Scroll right to see more
 ConditionsComfort  
Time TempWeatherWind HumidityBarometerVisibility
3:00 am
Sun, Dec 4
26 °FChilly.2 mph86%30.41 "HgN/A
2:00 am27 °FChilly.2 mph85%30.41 "HgN/A
1:00 am27 °FClear.2 mph84%30.41 "Hg9 mi
12:00 am27 °FChilly.3 mph83%30.40 "HgN/A
11:00 pm
Sat, Dec 3
28 °FChilly.3 mph82%30.39 "HgN/A
10:00 pm28 °FClear.2 mph83%30.39 "Hg12 mi
9:00 pm28 °FChilly.2 mph82%30.38 "HgN/A
8:00 pm29 °FChilly.5 mph78%30.37 "HgN/A
7:00 pm30 °FChilly.3 mph78%30.37 "HgN/A
6:00 pm30 °FChilly.3 mph76%30.35 "HgN/A
5:00 pm32 °FChilly.2 mph72%30.34 "HgN/A
4:00 pm37 °FSunny.1 mph57%30.31 "Hg16 mi
3:00 pm39 °FChilly.2 mph54%30.30 "HgN/A
2:00 pm39 °FChilly.3 mph57%30.30 "HgN/A
1:00 pm39 °FSunny.5 mph60%30.30 "Hg16 mi
12:00 pm39 °FChilly.2 mph60%30.29 "HgN/A
11:00 am39 °FChilly.1 mph61%30.29 "HgN/A
10:00 am36 °FSunny.1 mph68%30.29 "Hg16 mi
9:00 am31 °FChilly.1 mph76%30.27 "HgN/A
8:00 am29 °FChilly.2 mph81%30.26 "HgN/A
7:00 am29 °FClear.1 mph81%30.25 "Hg12 mi
6:00 am34 °FClear.5 mph70%30.23 "Hg12 mi
5:00 am35 °FClear.5 mph69%30.22 "Hg12 mi
Weather by CustomWeather, © 2016

See weather overviewHow to use our weather pages